Location: Pedholt
(56.0260°N, 10.2097°E)
Time: 06:15:30
(UTC+00:00)

Cosmos 2061 Rocket - Pass Details

Date: 14 July 2020
Orbit: 965 x 1013 km, 82.9° (Epoch: 14 August)

Event Time Altitude Azimuth Distance (km) Brightness Sun altitude
Exits shadow 01:41:57 - 201° (SSW) 2,952 5.9 -7.1°
Reaches altitude 10° 01:42:28 10° 201° (SSW) 2,764 5.7 -7.1°
Maximum altitude 01:48:47 69° 285° (WNW) 1,060 4.2 -6.6°
Drops below altitude 10° 01:55:05 10° 9° (N) 2,747 7.6 -6.1°
Sets 01:57:37 0° 12° (NNE) 3,692 8.5 -5.9°
